KS5S Weather Reports


Display with metric or nautical units.
time (UTC)temp
F
wind
direction
speed
MPH
gust
MPH
rain 1hr
in
rain 24hr
in
rain mn
in
humidity
%
barometer
mb
20260505060148 73 210 4.0 21.0 0.00 0.00 0.00 83 1004.2
20260505055643 73 181 10.0 18.0 0.00 0.00 0.00 82 1004.2
20260505055140 73 176 5.0 20.0 0.00 0.00 0.00 82 1004.2
20260505054638 74 183 13.0 20.0 0.00 0.00 0.00 81 1004.4
20260505054136 74 185 6.0 19.0 0.00 0.00 0.00 81 1004.2
20260505053633 74 192 9.0 14.0 0.00 0.00 0.00 81 1004.2
20260505053129 74 188 13.0 16.0 0.00 0.00 0.00 80 1004.2
20260505052626 74 185 4.0 17.0 0.00 0.00 0.00 80 1004.4
20260505052124 74 215 7.0 15.0 0.00 0.00 0.00 80 1004.1
20260505051621 74 182 5.0 14.0 0.00 0.00 0.00 79 1004.5
20260505051119 74 172 6.0 13.0 0.00 0.00 0.00 79 1004.7
20260505050616 74 197 5.0 16.0 0.00 0.00 0.00 79 1004.7
20260505050114 75 174 9.0 19.0 0.00 0.00 0.00 78 1004.8
20260505041544 76 170 4.0 17.0 0.00 0.00 0.00 75 1004.6
20260505041041 76 191 8.0 15.0 0.00 0.00 0.00 76 1004.8
20260505040539 76 161 4.0 17.0 0.00 0.00 0.00 76 1004.7
20260505040036 76 190 6.0 12.0 0.00 0.00 0.00 76 1004.8
20260505035531 76 224 3.0 15.0 0.00 0.00 0.00 75 1004.9
20260505035028 76 151 12.0 19.0 0.00 0.00 0.00 75 1004.8
20260505034525 76 188 3.0 18.0 0.00 0.00 0.00 75 1004.7
20260505034022 76 255 5.0 15.0 0.00 0.00 0.00 75 1004.7
20260505033519 76 180 7.0 14.0 0.00 0.00 0.00 75 1004.4
20260505033017 76 177 13.0 15.0 0.00 0.00 0.00 75 1004.7
20260505032514 76 156 4.0 15.0 0.00 0.00 0.00 75 1004.5
20260505032011 76 188 6.0 20.0 0.00 0.00 0.00 74 1004.1
20260505031508 76 137 5.0 15.0 0.00 0.00 0.00 75 1004.3
20260505031004 77 163 5.0 18.0 0.00 0.00 0.00 74 1004.3
20260505030501 77 161 9.0 19.0 0.00 0.00 0.00 74 1004.6
20260505025956 77 172 5.0 18.0 0.00 0.00 0.00 73 1004.6
20260505025453 77 157 7.0 17.0 0.00 0.00 0.00 73 1004.5
20260505024953 77 173 5.0 12.0 0.00 0.00 0.00 74 1004.6
20260505024449 77 157 13.0 19.0 0.00 0.00 0.00 73 1004.4
20260505023946 77 183 9.0 19.0 0.00 0.00 0.00 73 1004.3
20260505023443 77 187 6.0 10.0 0.00 0.00 0.00 73 1004.3
20260505022940 77 161 4.0 16.0 0.00 0.00 0.00 73 1004.4
20260505022438 77 154 9.0 13.0 0.00 0.00 0.00 73 1004.2
20260505021935 77 162 5.0 17.0 0.00 0.00 0.00 73 1004.3
20260505021431 77 172 16.0 18.0 0.00 0.00 0.00 73 1004.0
20260505020927 77 173 6.0 20.0 0.00 0.00 0.00 73 1004.1
20260505020422 77 163 5.0 11.0 0.00 0.00 0.00 73 1004.3
20260505015920 77 162 10.0 14.0 0.00 0.00 0.00 73 1004.1
20260505015417 77 159 5.0 13.0 0.00 0.00 0.00 73 1004.1
20260505014914 77 167 3.0 16.0 0.00 0.00 0.00 73 1003.9
20260505014411 77 169 7.0 14.0 0.00 0.00 0.00 73 1004.1
20260505013908 77 168 10.0 13.0 0.00 0.00 0.00 73 1004.0
20260505013404 77 204 2.0 14.0 0.00 0.00 0.00 73 1004.2
20260505012903 77 161 6.0 12.0 0.00 0.00 0.00 73 1004.1
20260505012400 77 169 5.0 14.0 0.00 0.00 0.00 72 1003.9
20260505011856 77 145 5.0 11.0 0.00 0.00 0.00 72 1004.2
20260505011353 77 180 15.0 16.0 0.00 0.00 0.00 72 1004.0
20260505010850 77 149 6.0 14.0 0.00 0.00 0.00 71 1004.0
20260505010345 78 155 5.0 13.0 0.00 0.00 0.00 72 1003.9
20260505005842 78 174 11.0 12.0 0.00 0.00 0.00 71 1003.9
20260505005339 78 177 4.0 17.0 0.00 0.00 0.00 71 1004.0
20260505004836 78 134 3.0 15.0 0.00 0.00 0.00 71 1004.0
20260505004332 78 148 5.0 12.0 0.00 0.00 0.00 71 1004.3
20260505003830 78 177 12.0 16.0 0.00 0.00 0.00 70 1004.1
20260505003327 78 154 8.0 16.0 0.00 0.00 0.00 70 1004.1
20260505002823 78 187 5.0 13.0 0.00 0.00 0.00 71 1004.4
20260505002320 78 145 7.0 15.0 0.00 0.00 0.00 70 1004.3
20260505001818 78 162 4.0 9.0 0.00 0.00 0.00 70 1004.4
20260505001315 79 171 6.0 18.0 0.00 0.00 0.00 69 1004.5
20260505000812 79 158 7.0 15.0 0.00 0.00 0.00 69 1004.6
20260505000310 79 166 17.0 18.0 0.00 0.00 0.00 68 1004.6
20260504235806 79 185 7.0 24.0 0.00 0.00 0.00 67 1004.6
20260504235304 80 193 13.0 19.0 0.00 0.00 0.00 67 1004.4
20260504234800 80 185 13.0 17.0 0.00 0.00 0.00 67 1004.5
20260504234258 80 174 5.0 12.0 0.00 0.00 0.00 67 1004.6
20260504233754 80 208 2.0 21.0 0.00 0.00 0.00 66 1004.4
20260504233249 80 172 6.0 19.0 0.00 0.00 0.00 66 1004.5
20260504232746 80 212 5.0 15.0 0.00 0.00 0.00 67 1004.6
20260504232243 80 190 14.0 15.0 0.00 0.00 0.00 66 1004.6
20260504231740 80 180 5.0 17.0 0.00 0.00 0.00 65 1004.8
20260504231237 80 175 12.0 15.0 0.00 0.00 0.00 65 1004.7
20260504230733 80 168 9.0 20.0 0.00 0.00 0.00 65 1005.2
20260504230232 81 212 3.0 17.0 0.00 0.00 0.00 65 1004.9
20260504225730 81 163 7.0 15.0 0.00 0.00 0.00 65 1004.9
20260504225226 81 189 7.0 29.0 0.00 0.00 0.00 64 1004.9
20260504224723 81 174 3.0 16.0 0.00 0.00 0.00 64 1005.0
20260504224220 81 176 12.0 20.0 0.00 0.00 0.00 65 1005.0
20260504223716 81 173 12.0 17.0 0.00 0.00 0.00 65 1004.7
20260504223212 81 175 10.0 24.0 0.00 0.00 0.00 64 1005.0
20260504222709 82 169 7.0 16.0 0.00 0.00 0.00 63 1005.0
20260504222206 81 170 6.0 17.0 0.00 0.00 0.00 64 1005.2
20260504221704 81 156 11.0 23.0 0.00 0.00 0.00 63 1005.4
20260504221201 81 179 4.0 18.0 0.00 0.00 0.00 62 1005.2
20260504220657 81 170 11.0 20.0 0.00 0.00 0.00 62 1005.3
20260504220155 81 165 8.0 22.0 0.00 0.00 0.00 62 1005.2
20260504215651 81 169 5.0 21.0 0.00 0.00 0.00 62 1005.4
20260504215148 81 173 4.0 15.0 0.00 0.00 0.00 62 1005.2
20260504214644 81 201 7.0 20.0 0.00 0.00 0.00 62 1005.5
20260504214141 81 148 19.0 24.0 0.00 0.00 0.00 61 1005.5
20260504213637 82 186 3.0 16.0 0.00 0.00 0.00 61 1005.6
20260504213134 81 159 21.0 21.0 0.00 0.00 0.00 62 1005.8
20260504212630 81 153 6.0 24.0 0.00 0.00 0.00 62 1005.7
20260504212127 82 180 9.0 18.0 0.00 0.00 0.00 61 1005.9
20260504211625 82 176 7.0 19.0 0.00 0.00 0.00 60 1005.8
20260504211121 82 177 5.0 20.0 0.00 0.00 0.00 62 1005.8
20260504210619 82 170 5.0 15.0 0.00 0.00 0.00 61 1005.9
20260504210115 82 168 4.0 20.0 0.00 0.00 0.00 60 1006.3
20260504205613 82 187 5.0 23.0 0.00 0.00 0.00 61 1006.2
20260504205110 82 172 10.0 15.0 0.00 0.00 0.00 60 1006.2
20260504204608 82 181 14.0 20.0 0.00 0.00 0.00 60 1006.2
20260504204107 82 160 13.0 23.0 0.00 0.00 0.00 59 1006.4
20260504203605 82 179 7.0 20.0 0.00 0.00 0.00 60 1006.6
20260504203102 82 175 11.0 25.0 0.00 0.00 0.00 60 1006.5
20260504202557 83 183 3.0 13.0 0.00 0.00 0.00 61 1006.8
20260504202054 82 172 7.0 22.0 0.00 0.00 0.00 60 1006.6
20260504201551 83 215 3.0 17.0 0.00 0.00 0.00 62 1007.0
20260504201049 82 198 5.0 22.0 0.00 0.00 0.00 61 1007.1
20260504200545 82 181 5.0 19.0 0.00 0.00 0.00 60 1007.2
20260504200042 82 151 3.0 16.0 0.00 0.00 0.00 60 1007.2
20260504195538 81 179 8.0 24.0 0.00 0.00 0.00 62 1007.5
20260504195035 82 142 8.0 13.0 0.00 0.00 0.00 61 1007.5
20260504194531 82 189 8.0 21.0 0.00 0.00 0.00 60 1007.4
20260504194027 82 178 4.0 19.0 0.00 0.00 0.00 62 1007.9
20260504193524 82 201 6.0 20.0 0.00 0.00 0.00 60 1008.1
20260504193022 81 159 7.0 13.0 0.00 0.00 0.00 62 1008.0
20260504192520 81 175 7.0 20.0 0.00 0.00 0.00 61 1007.9
20260504192018 82 210 5.0 17.0 0.00 0.00 0.00 61 1008.0
20260504191516 80 205 5.0 16.0 0.00 0.00 0.00 63 1008.1
20260504191012 80 186 8.0 19.0 0.00 0.00 0.00 62 1008.1
20260504190508 80 219 3.0 14.0 0.00 0.00 0.00 63 1007.9
20260504190004 79 174 5.0 24.0 0.00 0.00 0.00 64 1008.4
20260504185501 80 213 7.0 17.0 0.00 0.00 0.00 61 1008.4
20260504184958 80 145 9.0 18.0 0.00 0.00 0.00 62 1008.3
20260504184453 79 180 22.0 29.0 0.00 0.00 0.00 63 1008.5
20260504183949 79 182 10.0 23.0 0.00 0.00 0.00 63 1008.5
20260504183446 79 216 4.0 17.0 0.00 0.00 0.00 63 1008.7
20260504182944 78 177 10.0 21.0 0.00 0.00 0.00 63 1008.8
20260504182440 79 214 12.0 16.0 0.00 0.00 0.00 63 1008.9
20260504181938 80 210 9.0 15.0 0.00 0.00 0.00 62 1008.8
20260504181435 79 200 7.0 17.0 0.00 0.00 0.00 64 1009.0
20260504180934 78 208 4.0 15.0 0.00 0.00 0.00 65 1008.9
20260504180432 79 159 12.0 12.0 0.00 0.00 0.00 62 1009.1
20260504175930 78 238 4.0 20.0 0.00 0.00 0.00 66 1008.9
20260504175427 78 185 4.0 17.0 0.00 0.00 0.00 65 1009.2
20260504174925 77 163 6.0 26.0 0.00 0.00 0.00 64 1009.2
20260504174422 77 217 9.0 17.0 0.00 0.00 0.00 64 1009.5
20260504173919 77 221 5.0 30.0 0.00 0.00 0.00 64 1009.3
20260504173416 77 202 11.0 29.0 0.00 0.00 0.00 63 1009.5
20260504172913 78 217 3.0 13.0 0.00 0.00 0.00 65 1009.3
20260504172409 77 193 9.0 20.0 0.00 0.00 0.00 64 1009.5
20260504171905 77 201 11.0 20.0 0.00 0.00 0.00 63 1009.7
20260504171403 77 218 8.0 18.0 0.00 0.00 0.00 64 1010.0
20260504170859 77 239 11.0 14.0 0.00 0.00 0.00 64 1010.0
20260504170356 77 179 5.0 22.0 0.00 0.00 0.00 65 1010.0
20260504160315 74 191 4.0 17.0 0.00 0.00 0.00 67 1010.9
20260504150740 70 201 5.0 31.0 0.00 0.00 0.00 73 1011.0
20260504150236 70 186 11.0 27.0 0.00 0.00 0.00 73 1010.9
20260504141206 68 214 16.0 19.0 0.00 0.00 0.00 75 1011.3
20260504140703 68 198 4.0 16.0 0.00 0.00 0.00 76 1011.3
20260504140158 68 177 9.0 26.0 0.00 0.00 0.00 77 1011.1
20260504130626 64 182 5.0 17.0 0.00 0.00 0.00 82 1011.4
20260504130123 64 218 8.0 16.0 0.00 0.00 0.00 82 1011.4
20260504110515 60 196 4.0 13.0 0.00 0.00 0.00 87 1011.0
20260504100437 60 191 2.0 12.0 0.00 0.00 0.00 85 1011.5
20260504081830 62 199 2.0 9.0 0.00 0.00 0.00 79 1012.3
20260504081326 62 192 4.0 7.0 0.00 0.00 0.00 79 1012.1
20260504080822 62 168 1.0 9.0 0.00 0.00 0.00 78 1012.3
20260504080320 62 175 5.0 8.0 0.00 0.00 0.00 77 1012.3
20260504070246 64 137 3.0 13.0 0.00 0.00 0.00 69 1012.7